Location: Rowland
(34.5359°N, 79.2929°W)
Time: 19:58:44
(UTC+00:00)

Transit 2A - Pass Details

Date: 07 October 2022
Orbit: 598 x 959 km, 66.7° (Epoch: 03 December)

Event Time Altitude Azimuth Distance (km) Brightness Sun altitude
Rises 13:47:41 0° 309° (NW) 3,087 8.6 28.6°
Reaches altitude 10° 13:51:01 10° 284° (WNW) 2,241 8.0 29.2°
Maximum altitude 13:53:37 14° 253° (WSW) 2,028 8.0 29.6°
Drops below altitude 10° 13:56:20 10° 223° (SW) 2,359 8.5 30.1°
Sets 14:00:02 0° 199° (SSW) 3,370 9.5 30.8°
